Wind_Speed
17 18 17 15 14 13 12 11 11 11 13 13 14 14 14 14 15 15 15 14 14 14 15 16 16 17 17 18 18 20 21 22 24 25 25 26 27 28 28 29 30 31 31 31
18 18 17 16 14 13 13 13 13 13 14 14 14 15 15 16 17 17 17 16 16 17 18 19 19 20 20 21 21 22 23 24 25 26 27 28 29 29 30 31 32 33 32 32
17 18 18 17 15 15 15 15 14 15 16 15 15 15 17 17 18 19 20 20 20 20 21 22 22 23 24 24 24 24 25 26 27 28 29 30 31 31 32 33 34 34 34 34
19 19 19 19 17 17 17 17 17 17 17 17 16 17 18 19 20 21 23 24 24 25 25 25 25 26 27 28 28 28 28 29 30 31 32 33 33 34 35 36 36 37 37 37
21 20 20 21 19 18 18 18 18 18 18 17 18 19 19 20 21 23 24 26 27 28 28 28 28 29 30 31 32 32 33 33 33 34 35 36 36 37 38 39 39 40 40 41
22 21 20 21 20 19 19 19 19 19 19 19 19 20 19 20 21 23 24 26 28 29 29 30 30 31 33 34 34 34 35 36 36 36 37 38 39 40 41 42 42 43 43 44
22 21 21 22 20 19 20 20 20 20 20 20 21 21 21 21 22 24 25 26 28 29 30 31 32 32 33 34 35 35 35 36 37 37 39 40 41 42 43 44 44 45 47 48
23 22 23 22 21 21 21 21 20 20 21 21 22 22 23 23 24 24 25 26 27 29 31 33 33 32 33 34 35 36 36 37 39 39 40 42 43 44 44 45 47 48 49 51
23 23 24 23 23 22 22 21 21 21 22 22 23 24 24 24 25 25 26 27 28 29 31 32 32 32 33 33 34 36 38 39 40 40 42 43 44 45 46 47 49 50 52 53
22 23 24 24 24 23 22 22 22 23 23 24 24 25 25 25 26 26 27 28 29 29 30 31 31 31 33 34 35 36 37 38 39 41 42 44 45 47 48 50 51 52 54 56
23 24 23 22 22 22 23 23 23 24 24 25 25 26 26 26 27 27 28 28 29 29 30 31 32 33 34 35 36 38 39 40 41 42 44 45 47 48 50 52 54 56 58 59
22 22 23 22 22 23 23 24 24 25 25 26 27 27 27 27 28 28 29 30 30 31 32 32 33 35 36 37 38 39 41 42 43 44 46 48 49 51 53 56 58 60 62 63
22 23 23 23 24 24 24 25 26 26 27 27 27 28 30 30 30 31 31 32 33 33 34 35 36 37 38 39 40 41 43 44 45 47 49 51 53 55 57 59 61 62 64 65
22 23 23 24 24 25 25 26 27 27 28 28 29 31 32 33 33 33 34 34 35 35 36 36 37 39 40 42 43 44 46 47 49 51 53 54 56 58 59 61 62 63 64 65
21 22 23 23 24 24 25 26 27 27 28 29 31 32 34 35 35 35 36 36 37 37 37 38 39 40 42 44 45 47 48 50 51 53 55 56 58 59 61 61 62 62 62 62
21 21 22 23 23 24 25 26 27 28 29 31 33 34 35 35 36 36 37 38 39 39 39 40 41 43 44 46 48 50 51 53 54 56 57 58 59 60 60 60 60 59 58 57
21 21 22 23 24 25 26 27 27 29 31 33 34 35 36 37 38 39 39 40 41 41 41 42 44 45 47 49 51 52 54 55 56 57 58 58 58 57 56 55 53 51 50 48
22 23 24 25 25 26 26 28 29 30 32 33 34 36 37 38 39 40 41 41 42 43 44 45 46 48 50 52 53 54 55 56 56 56 56 55 53 52 51 49 47 45 44 43
23 24 24 25 26 27 28 29 31 32 33 34 35 38 39 39 39 40 41 42 43 45 46 47 49 50 52 53 54 54 54 54 53 52 51 50 48 47 45 43 42 40 38 37
25 25 26 27 28 29 30 31 32 32 33 35 36 38 38 39 39 40 42 44 46 47 49 50 50 51 51 52 52 51 50 49 48 48 47 45 43 41 40 38 37 37 35 33
26 27 28 28 29 31 31 32 32 33 35 37 38 39 40 41 42 43 45 47 47 48 49 49 49 49 49 48 48 47 46 45 44 43 41 39 37 36 35 35 34 33 31 29
28 29 29 30 31 33 33 34 35 36 38 39 40 41 41 42 44 44 45 46 47 47 47 47 46 46 45 44 44 43 42 41 39 37 35 33 32 32 31 30 29 28 26 25
30 31 31 32 33 34 35 37 38 39 41 41 41 42 43 43 44 44 44 45 44 44 43 43 42 40 40 40 39 38 36 34 33 31 30 29 28 27 26 25 24 22 21 20
30 31 32 33 35 36 38 39 40 41 41 41 42 42 42 42 42 42 42 42 41 40 39 38 37 36 35 35 33 32 31 29 28 27 26 25 24 23 22 20 20 18 17 17
32 33 34 35 37 38 39 39 39 40 40 40 40 40 40 40 40 39 38 37 36 36 35 33 32 32 31 30 29 28 27 27 25 24 23 22 21 19 18 17 16 16 16 16
34 34 36 37 37 38 38 39 39 40 39 38 38 38 37 37 36 35 33 32 32 31 30 29 29 28 27 26 26 25 25 23 22 20 19 18 17 16 15 14 14 14 15 15
34 35 36 37 37 37 37 37 37 36 35 35 34 33 33 32 31 30 29 28 27 27 26 26 26 25 24 24 23 22 21 20 17 16 15 14 13 13 12 12 13 13 13 13
Wind_Direction
250 254 262 267 266 263 264 272 273 268 263 262 263 265 266 268 268 266 265 265 268 269 270 271 268 265 263 263 263 263 263 265 266 268 270 272 273 275 277 279 280 281 281 283
253 254 257 260 265 264 262 268 270 265 263 261 263 264 264 266 266 266 264 264 266 268 270 271 270 267 266 266 267 267 266 266 268 270 272 274 275 277 279 280 281 282 283 284
252 255 256 259 262 260 261 264 266 265 265 262 262 263 264 264 263 261 261 262 263 266 269 269 269 267 266 267 267 268 269 270 271 272 274 276 278 279 280 281 282 283 284 284
253 255 256 259 259 259 260 262 265 268 266 264 266 265 263 263 263 262 259 260 262 264 266 267 268 267 268 267 266 268 269 271 272 274 276 277 278 279 280 281 283 284 284 285
249 255 259 259 257 257 261 264 266 266 266 265 267 267 265 265 264 263 261 259 260 262 262 263 265 267 269 269 267 267 269 270 272 274 276 277 279 281 281 282 283 284 285 285
245 249 254 256 257 259 263 264 265 265 266 266 268 269 268 268 267 264 264 262 262 263 261 262 263 265 267 268 267 268 270 270 273 275 276 278 281 283 283 283 284 285 285 285
245 249 252 255 257 260 263 263 264 264 265 265 266 267 268 269 270 267 265 265 264 263 263 264 264 264 267 268 269 271 272 273 275 277 278 279 281 282 283 284 284 285 286 286
242 245 251 256 260 260 261 263 265 266 265 265 266 268 269 269 269 269 268 268 268 268 266 266 266 267 270 272 272 274 275 275 276 278 279 280 281 282 283 284 284 285 285 285
240 246 251 256 259 261 262 263 266 268 268 267 267 269 270 270 271 270 270 269 270 272 272 270 270 273 276 275 277 277 277 277 277 279 282 283 284 285 285 285 285 286 286 286
246 251 253 256 259 260 261 264 268 268 269 270 270 269 269 271 273 274 273 273 274 274 275 276 277 278 279 280 280 281 282 284 285 284 284 285 286 286 286 286 287 287 287 287
249 253 256 258 260 261 264 267 270 270 269 269 271 271 271 272 273 275 277 277 277 277 278 280 281 282 283 284 284 285 286 287 287 287 287 287 288 288 288 289 289 288 288 288
253 257 260 262 263 266 268 269 271 271 272 272 273 274 274 274 275 276 278 279 280 281 282 283 284 285 286 286 287 288 288 288 289 289 289 290 290 290 290 290 290 290 289 289
256 259 261 263 265 267 268 269 270 271 273 274 273 273 275 276 276 278 278 279 280 281 283 284 285 286 287 288 289 289 289 290 290 291 291 292 292 292 292 292 292 291 291 291
259 261 263 264 266 268 269 269 269 271 273 274 274 276 276 276 277 278 278 280 281 282 283 284 286 288 289 290 290 291 291 292 293 293 293 294 294 294 294 293 293 293 293 292
262 263 265 266 267 268 269 269 271 272 273 274 275 277 278 278 278 279 280 280 281 283 284 286 288 290 291 292 292 293 294 295 295 296 296 296 296 296 295 295 295 295 294 294
264 265 266 267 268 269 270 270 272 274 275 275 276 278 280 279 280 282 282 282 282 284 286 288 290 292 293 294 295 296 297 297 297 297 297 297 297 297 297 297 297 297 297 296
266 267 268 269 270 271 272 274 275 278 279 279 279 280 280 280 281 281 281 282 284 286 288 289 291 293 295 296 297 298 298 298 298 298 298 298 298 298 299 299 299 299 299 299
267 268 270 271 272 274 276 277 279 280 281 281 281 279 279 279 280 281 282 283 285 288 290 292 294 295 297 298 298 298 299 299 299 299 299 299 299 299 300 300 300 300 301 301
271 272 272 273 274 275 277 278 280 280 280 282 282 281 279 279 280 282 284 287 289 291 293 295 297 298 299 299 299 299 299 300 300 300 300 300 300 300 301 301 302 302 303 303
273 275 276 276 276 276 278 279 279 279 280 281 282 282 281 282 284 286 289 292 294 295 296 298 298 299 300 300 301 301 301 300 300 300 300 300 300 301 302 302 303 304 304 304
275 276 277 277 278 278 280 280 280 281 282 283 284 284 286 288 290 292 294 295 296 297 298 299 300 300 301 301 301 301 301 301 301 301 302 302 302 303 303 303 304 305 305 306
275 276 277 279 279 279 279 280 281 283 285 286 287 288 290 292 294 295 296 297 298 299 299 299 300 301 301 301 301 302 302 302 303 304 304 304 304 305 306 307 307 307 307 308
276 277 278 279 279 280 280 282 283 285 287 288 290 292 294 295 296 298 299 299 299 299 300 300 301 301 302 302 303 304 304 305 305 306 307 307 308 309 309 310 310 310 311 313
279 279 279 280 281 282 284 286 287 289 290 292 294 295 296 296 297 298 299 299 299 299 300 301 302 303 304 305 305 306 307 307 308 309 309 310 311 312 313 314 315 316 316 317
279 281 282 283 284 286 288 289 291 292 292 293 295 296 296 297 297 299 299 299 299 300 301 302 302 303 305 306 307 309 310 310 310 310 310 312 313 315 316 318 320 322 324 324
281 282 284 286 287 289 289 291 292 293 293 294 295 295 295 296 297 297 298 298 300 301 302 303 304 305 307 308 310 311 313 313 313 312 313 315 317 318 320 322 325 328 330 331
282 284 285 287 288 289 290 291 292 292 293 293 294 294 295 296 296 297 297 299 300 302 303 305 306 307 309 310 311 312 314 316 316 317 318 321 323 325 327 330 332 334 335 337
Height
5847 5846 5847 5846 5846 5846 5846 5846 5846 5846 5844 5843 5841 5841 5840 5840 5840 5840 5840 5841 5841 5841 5841 5841 5842 5842 5842 5842 5842 5843 5843 5843 5843 5843 5843 5842 5841 5841 5840 5839 5838 5837 5836 5834
5841 5841 5841 5842 5842 5841 5841 5841 5841 5840 5840 5838 5837 5837 5836 5836 5836 5836 5836 5836 5837 5837 5837 5837 5837 5837 5837 5837 5837 5837 5837 5837 5837 5836 5836 5835 5834 5833 5832 5831 5830 5829 5828 5826
5836 5836 5836 5837 5837 5836 5836 5836 5836 5835 5835 5834 5833 5832 5832 5832 5832 5832 5832 5832 5832 5832 5832 5832 5831 5831 5831 5832 5831 5831 5831 5831 5830 5829 5828 5828 5826 5825 5824 5822 5821 5820 5818 5816
5831 5831 5832 5834 5831 5831 5831 5831 5830 5829 5829 5829 5828 5828 5827 5827 5827 5826 5826 5826 5826 5826 5826 5826 5826 5825 5825 5825 5824 5824 5823 5823 5823 5822 5821 5819 5818 5816 5815 5813 5812 5810 5808 5806
5825 5825 5826 5826 5826 5826 5826 5825 5825 5824 5824 5823 5823 5822 5821 5821 5821 5821 5820 5820 5820 5820 5819 5819 5819 5818 5818 5817 5816 5815 5815 5815 5814 5813 5812 5810 5809 5807 5805 5803 5801 5799 5797 5795
5818 5819 5820 5820 5819 5819 5821 5819 5819 5818 5818 5818 5817 5817 5816 5815 5814 5814 5814 5813 5813 5812 5812 5811 5811 5810 5810 5808 5807 5807 5806 5805 5804 5803 5802 5800 5798 5796 5794 5792 5790 5788 5785 5782
5811 5812 5814 5812 5813 5814 5816 5815 5813 5812 5812 5811 5811 5811 5810 5809 5808 5807 5807 5806 5805 5804 5804 5803 5802 5802 5801 5800 5799 5798 5797 5795 5794 5793 5791 5790 5788 5786 5783 5781 5778 5775 5772 5769
5804 5806 5808 5806 5806 5808 5808 5807 5806 5806 5805 5805 5804 5804 5803 5802 5802 5801 5800 5799 5798 5797 5796 5795 5794 5793 5792 5790 5790 5788 5787 5786 5784 5783 5781 5779 5776 5774 5771 5768 5765 5762 5759 5755
5797 5799 5798 5798 5799 5800 5800 5800 5799 5799 5799 5798 5798 5797 5796 5795 5794 5793 5792 5791 5790 5789 5788 5786 5785 5784 5783 5781 5780 5779 5777 5775 5773 5771 5769 5767 5764 5761 5758 5755 5752 5748 5744 5741
5789 5790 5790 5791 5791 5792 5793 5793 5793 5792 5792 5791 5790 5790 5789 5788 5787 5786 5785 5784 5782 5781 5780 5778 5777 5776 5774 5773 5771 5769 5768 5765 5763 5760 5758 5755 5752 5748 5745 5741 5737 5733 5729 5724
5782 5783 5783 5784 5785 5785 5786 5786 5785 5785 5784 5784 5783 5782 5781 5780 5779 5778 5777 5776 5774 5773 5772 5770 5769 5767 5766 5764 5762 5759 5757 5754 5752 5749 5746 5742 5738 5734 5730 5726 5721 5717 5712 5707
5775 5776 5777 5778 5778 5778 5778 5778 5778 5778 5777 5776 5775 5774 5774 5773 5772 5771 5769 5768 5766 5765 5763 5762 5760 5758 5756 5754 5751 5749 5746 5743 5740 5736 5732 5728 5724 5720 5715 5710 5705 5698 5693 5687
5769 5769 5770 5771 5771 5771 5771 5771 5770 5770 5769 5768 5767 5766 5765 5764 5763 5762 5761 5760 5758 5756 5755 5753 5751 5748 5746 5743 5741 5737 5734 5730 5726 5722 5718 5713 5708 5703 5698 5693 5686 5680 5674 5667
5762 5763 5763 5763 5764 5763 5763 5763 5763 5762 5761 5760 5759 5758 5757 5756 5755 5753 5752 5750 5749 5747 5745 5743 5740 5738 5735 5732 5728 5725 5721 5717 5712 5708 5703 5697 5692 5686 5680 5674 5668 5661 5654 5647
5755 5755 5756 5756 5756 5756 5755 5755 5755 5754 5753 5752 5751 5750 5748 5747 5745 5744 5742 5741 5739 5737 5735 5732 5729 5726 5723 5719 5715 5711 5707 5702 5697 5692 5686 5680 5674 5668 5661 5655 5648 5641 5634 5627
5748 5748 5749 5749 5748 5748 5748 5747 5747 5746 5745 5743 5742 5740 5739 5737 5736 5734 5732 5730 5728 5726 5723 5720 5717 5714 5710 5706 5702 5697 5692 5687 5682 5676 5670 5663 5657 5650 5643 5637 5630 5623 5616 5609
5741 5742 5742 5741 5741 5741 5740 5739 5738 5737 5736 5734 5733 5731 5729 5727 5726 5724 5721 5719 5717 5714 5712 5708 5705 5701 5697 5692 5687 5682 5677 5671 5665 5659 5653 5646 5640 5633 5626 5620 5613 5606 5600 5593
5735 5735 5734 5734 5734 5733 5732 5731 5730 5728 5727 5725 5723 5721 5719 5717 5715 5713 5711 5708 5705 5702 5699 5696 5692 5687 5683 5678 5672 5667 5661 5655 5649 5642 5636 5630 5624 5617 5611 5605 5598 5593 5587 5581
5727 5727 5726 5726 5725 5725 5723 5722 5721 5719 5718 5716 5714 5712 5709 5707 5705 5702 5699 5697 5694 5690 5686 5682 5678 5673 5668 5662 5657 5651 5645 5639 5632 5627 5621 5615 5609 5603 5597 5591 5586 5580 5575 5569
5720 5719 5718 5718 5717 5716 5715 5713 5712 5710 5708 5706 5704 5702 5699 5697 5694 5691 5688 5684 5681 5676 5672 5668 5663 5658 5653 5647 5641 5635 5630 5624 5618 5613 5607 5601 5596 5590 5585 5580 5574 5569 5564 5559
5712 5711 5710 5709 5708 5706 5705 5704 5702 5700 5698 5696 5694 5691 5689 5686 5682 5679 5675 5671 5667 5663 5658 5653 5649 5643 5638 5633 5627 5621 5616 5610 5605 5599 5594 5589 5584 5579 5574 5569 5564 5560 5555 5550
5703 5702 5701 5700 5699 5697 5695 5694 5692 5690 5688 5685 5683 5680 5677 5674 5670 5666 5662 5658 5654 5649 5644 5640 5635 5630 5624 5619 5614 5609 5603 5598 5593 5588 5583 5578 5574 5569 5565 5560 5555 5551 5547 5543
5694 5693 5692 5690 5689 5687 5686 5684 5681 5679 5677 5674 5671 5668 5664 5661 5657 5653 5649 5645 5640 5636 5631 5627 5622 5617 5612 5608 5602 5597 5592 5587 5583 5578 5574 5570 5565 5561 5557 5553 5548 5544 5540 5537
5685 5683 5682 5680 5678 5677 5675 5672 5670 5667 5665 5662 5658 5655 5652 5648 5644 5640 5636 5632 5628 5623 5619 5615 5611 5606 5602 5597 5592 5588 5583 5579 5574 5570 5566 5562 5558 5554 5550 5547 5543 5539 5536 5532
5675 5673 5671 5670 5668 5666 5663 5661 5658 5655 5652 5649 5646 5643 5639 5635 5632 5628 5624 5620 5616 5612 5609 5605 5601 5597 5593 5588 5584 5580 5575 5571 5567 5563 5560 5556 5552 5549 5545 5542 5538 5535 5531 5528
5664 5662 5661 5659 5656 5654 5652 5649 5646 5643 5640 5637 5634 5631 5627 5624 5621 5617 5614 5610 5607 5603 5599 5596 5592 5588 5584 5580 5577 5573 5569 5565 5561 5557 5554 5551 5548 5544 5541 5538 5535 5532 5529 5525
5653 5651 5649 5647 5645 5643 5640 5637 5635 5632 5629 5626 5623 5620 5617 5614 5611 5607 5604 5601 5598 5595 5592 5588 5585 5581 5578 5574 5570 5567 5563 5560 5556 5553 5550 5547 5544 5541 5538 5536 5533 5529 5526 5523